Lapse_Rate
4.9 8.4 10.1 9.0 6.6 6.5 6.4 6.5 6.5 6.5 6.5 7.6 7.8 7.1 6.6 7.4 6.6 6.6 9.5 9.9 10.0 10.0 9.1 6.5 5.6 6.1 6.0 6.2 6.3 6.3 6.3 6.2 6.1 6.4 6.2 6.4 6.5 6.4 6.5 6.5 6.4 6.6 6.8 6.9 6.9 6.8 6.9 6.9 6.9
10.0 9.7 9.2 7.8 6.5 6.5 6.5 6.5 6.5 6.4 7.2 7.8 7.7 7.6 6.9 6.5 8.4 8.7 9.2 9.9 10.1 10.1 9.5 9.3 5.4 5.9 6.1 6.0 6.3 6.3 6.6 6.4 6.4 6.6 6.6 6.5 6.6 6.6 6.4 6.6 6.7 6.6 6.7 6.6 6.6 6.5 6.5 6.6 6.7
9.2 9.5 7.7 6.5 6.5 6.5 6.5 6.5 6.5 7.0 7.6 7.4 7.2 8.0 7.6 7.3 8.6 9.1 9.8 10.0 10.2 10.1 9.7 9.1 5.7 5.8 5.9 6.0 6.1 6.3 6.3 6.3 6.6 6.7 6.6 6.6 6.6 6.4 6.5 6.6 6.9 6.8 6.7 6.6 6.5 6.5 6.4 6.4 6.5
9.3 8.5 7.9 6.5 6.4 6.5 6.5 6.5 6.8 6.7 7.6 7.8 7.7 6.6 8.4 9.0 8.9 9.5 10.1 10.2 10.1 10.1 9.8 5.1 5.4 5.6 5.6 5.9 6.0 6.1 6.1 6.3 6.5 6.7 6.6 6.6 6.5 6.7 6.9 7.0 7.0 6.9 6.7 6.6 6.7 6.6 7.1 6.5 6.4
9.2 8.0 6.5 6.5 6.5 6.5 6.5 7.0 7.2 6.5 7.0 7.4 7.7 6.7 7.5 9.0 9.6 9.9 10.0 10.2 10.0 10.2 9.5 6.8 5.4 5.6 5.6 5.9 5.8 5.9 6.0 6.1 6.2 6.4 6.4 6.5 6.6 6.8 6.9 6.8 6.9 7.0 7.1 6.8 6.8 6.8 6.7 6.2 6.2
7.4 7.0 6.5 6.5 6.5 6.5 6.5 7.3 7.3 7.0 7.3 7.4 7.3 7.3 7.7 9.3 9.4 9.8 10.1 9.9 10.3 10.1 9.8 9.4 5.7 5.8 5.9 5.9 5.7 6.0 6.1 6.3 6.4 6.6 6.9 6.7 6.9 6.7 6.5 6.8 6.8 6.8 7.1 6.9 6.8 6.5 6.4 6.2 6.1
6.8 6.5 6.5 6.5 6.5 6.5 6.5 7.6 6.8 6.8 7.0 7.1 8.0 6.5 8.1 8.9 9.6 9.9 9.9 10.1 10.2 10.3 10.1 9.6 9.4 7.8 6.0 6.0 6.2 6.4 6.4 6.5 6.6 7.1 7.2 7.0 6.6 6.7 6.6 6.7 7.1 7.0 6.8 6.4 6.4 6.5 6.3 6.3 6.4
7.8 6.5 6.5 6.5 6.5 6.5 6.8 7.3 7.6 7.3 7.0 8.6 8.4 6.7 7.1 9.0 9.7 10.0 9.9 9.9 9.9 10.1 10.2 10.1 9.7 9.5 9.4 8.9 6.4 6.5 6.6 6.5 6.6 6.8 7.0 6.6 6.4 6.5 6.5 6.6 6.6 6.9 6.4 6.4 6.4 5.7 6.2 6.3 6.3
8.5 6.5 6.4 6.6 6.5 6.5 7.4 6.6 7.9 8.3 7.8 8.0 8.3 8.2 8.8 9.4 9.7 9.7 9.7 9.8 9.7 9.9 10.0 10.2 10.0 8.7 8.5 9.2 7.8 6.3 6.4 6.2 6.4 7.0 6.6 6.5 9.1 7.7 7.7 7.8 6.7 6.8 6.4 6.1 6.4 5.9 6.4 6.3 6.2
6.8 6.5 6.6 6.5 6.5 6.5 6.9 7.0 7.3 7.1 7.2 7.4 7.8 8.7 9.1 9.4 9.3 9.2 9.1 9.3 9.5 9.6 9.9 10.1 10.1 10.1 9.4 9.7 7.3 9.3 9.4 9.4 9.3 9.5 8.5 8.3 9.4 8.5 8.0 7.9 6.3 6.1 6.0 5.9 6.3 6.2 6.3 5.9 6.6
7.2 6.5 6.5 6.7 7.3 7.4 7.0 7.1 7.7 7.0 6.5 7.5 7.4 8.0 8.8 9.0 9.0 9.0 9.2 9.3 9.4 9.7 9.9 10.1 10.2 9.9 10.0 9.9 9.6 9.6 9.7 9.5 9.5 8.6 9.5 9.5 9.2 9.4 9.6 8.8 8.7 8.8 6.3 9.2 7.1 6.5 6.2 8.2 8.3
6.5 6.9 7.0 7.1 7.6 7.1 6.6 7.5 7.0 7.3 7.3 8.2 8.3 8.7 8.8 8.8 8.8 9.0 9.0 9.1 9.5 9.6 9.7 10.1 10.1 10.0 10.0 9.8 10.0 9.0 9.5 9.7 9.8 9.4 9.0 8.8 9.2 9.7 9.5 9.8 9.8 9.3 9.6 9.7 9.5 8.2 6.9 8.7 9.2
6.5 6.5 7.3 7.5 7.3 7.3 7.6 6.9 6.8 7.1 8.0 8.6 8.7 8.6 8.7 8.8 8.8 9.1 9.3 9.5 9.5 9.3 9.7 9.9 9.8 9.6 9.8 9.7 9.8 9.6 10.0 9.9 9.8 9.6 9.4 9.6 9.7 9.7 9.7 9.7 9.7 9.7 9.7 9.6 9.2 9.5 8.5 7.7 9.3
7.1 7.0 7.0 7.3 7.2 7.4 6.7 6.7 7.2 7.5 8.2 8.3 8.3 8.4 8.6 8.7 8.9 9.0 9.1 9.2 9.3 9.4 9.5 9.9 9.8 9.7 9.9 9.7 9.7 9.8 9.7 9.7 9.7 9.8 9.7 9.0 9.6 9.7 9.9 9.9 9.9 9.8 9.7 9.7 9.0 6.9 7.3 8.2 9.1
7.3 6.5 6.6 6.7 6.9 6.6 7.4 6.5 6.5 7.7 8.1 7.9 8.0 8.4 8.5 8.7 8.9 8.9 9.1 9.1 9.4 9.6 9.7 9.7 9.8 9.9 9.7 9.6 9.8 9.8 9.8 9.9 10.0 9.8 9.7 9.6 9.4 9.6 9.5 10.0 9.9 9.9 9.6 9.7 9.5 9.5 9.3 8.4 9.0
6.4 6.5 6.5 6.4 6.7 6.9 6.9 6.5 6.4 7.9 7.7 7.6 7.9 8.2 8.2 8.5 8.8 9.1 9.3 9.3 9.4 9.5 9.4 9.6 10.0 9.8 9.7 9.7 9.8 9.8 9.8 9.7 9.8 9.8 9.8 9.6 9.6 9.6 9.4 9.8 9.9 9.7 9.7 9.8 9.8 9.7 9.6 9.5 9.6
6.5 6.5 6.5 6.5 6.7 6.5 6.5 6.5 6.6 7.8 7.6 7.4 7.8 8.0 8.2 8.4 8.7 9.0 9.3 9.5 9.5 9.4 9.3 9.4 9.6 9.8 9.6 9.5 9.8 9.8 9.7 9.9 9.9 9.8 9.8 9.4 9.6 9.6 9.5 9.9 9.9 9.6 9.8 9.8 9.8 9.6 9.4 9.3 9.4
6.5 6.4 6.5 6.5 6.5 6.6 6.5 6.5 6.5 7.4 7.3 7.4 7.8 7.9 8.1 8.2 8.6 9.0 9.3 9.6 9.6 9.5 9.5 9.5 9.6 9.4 9.5 9.7 9.5 9.8 9.9 9.9 9.8 10.0 9.9 9.7 9.7 9.6 9.6 9.8 9.7 9.6 9.7 9.6 9.6 8.5 9.3 9.3 9.3
6.5 6.6 6.5 6.5 6.5 6.4 6.5 6.5 6.5 7.1 7.3 7.1 7.6 7.7 7.9 8.1 8.8 9.1 9.4 9.5 9.5 9.5 9.3 9.3 9.3 9.1 9.3 9.5 9.4 9.5 9.5 9.7 9.8 10.0 9.6 9.6 9.6 9.7 9.4 9.8 9.8 9.6 9.3 9.1 8.1 7.7 8.4 9.3 9.5
6.5 6.5 6.5 6.5 6.5 6.5 6.5 6.5 6.5 6.5 6.9 7.3 7.4 7.7 7.9 8.3 8.5 8.8 9.0 9.2 9.4 9.4 9.2 9.1 9.2 9.1 9.1 9.5 9.4 9.6 9.6 9.7 9.8 9.9 9.8 9.5 9.6 9.6 9.7 9.4 9.6 9.6 9.8 8.3 8.6 8.2 8.7 8.9 9.5
6.5 6.5 6.5 6.5 6.5 6.5 6.5 6.5 6.5 6.5 7.1 7.4 7.7 7.9 8.0 8.2 8.2 8.5 8.7 9.0 9.3 9.1 9.1 9.2 9.0 9.1 8.9 8.6 9.6 9.5 9.6 9.6 9.2 9.2 9.5 9.6 9.2 8.9 8.9 9.0 9.0 8.7 9.1 9.6 8.6 8.8 8.1 8.8 9.3
6.5 6.5 6.5 6.5 6.5 6.6 6.5 6.5 6.5 6.4 6.5 6.5 7.3 7.5 7.8 8.1 8.4 8.5 8.7 8.8 9.1 9.3 9.4 9.3 9.0 8.8 9.0 9.3 8.9 8.5 9.1 8.9 9.3 9.0 8.3 8.4 7.7 8.2 6.1 6.4 7.1 8.0 9.5 8.9 9.1 9.5 8.9 7.2 8.5
6.5 6.5 6.5 6.5 6.5 6.5 6.5 6.5 6.5 6.5 6.5 6.5 6.9 7.5 7.8 8.2 8.4 8.5 8.7 8.8 9.2 9.2 9.4 9.3 8.8 8.8 8.6 9.3 8.1 9.2 8.6 9.2 9.6 9.5 8.8 8.3 8.6 8.4 8.4 7.2 7.2 7.0 9.0 8.9 8.3 8.9 8.4 8.7 8.4
6.5 6.4 6.5 6.5 6.5 6.6 6.5 6.5 6.5 6.5 6.5 6.5 6.9 7.4 7.7 7.9 8.3 8.4 8.8 8.9 9.0 9.2 9.3 9.1 8.6 8.1 8.5 8.7 9.0 8.3 7.3 8.2 9.0 9.0 9.1 9.4 9.5 9.6 8.9 7.9 5.8 5.5 5.7 7.3 8.5 7.9 7.7 7.6 8.1
6.5 6.5 6.5 6.5 6.5 6.5 6.5 6.4 6.5 6.5 6.5 6.5 6.5 7.2 7.8 8.1 8.3 8.3 8.4 8.6 8.8 8.8 9.0 9.0 8.8 7.1 6.5 6.6 7.2 7.3 8.1 7.5 6.7 7.8 9.1 8.9 9.1 7.8 7.8 7.9 7.4 8.3 7.7 7.1 6.5 6.7 7.0 7.0 7.3
6.5 6.5 6.5 6.5 6.5 6.5 6.5 6.5 6.4 6.5 6.9 7.2 7.4 7.6 7.7 7.9 8.3 8.4 8.7 8.7 8.8 8.8 8.7 8.9 7.8 5.6 5.0 5.4 5.4 5.4 5.7 7.7 9.0 8.5 8.9 9.3 9.3 9.4 8.1 8.1 8.1 7.9 7.4 7.4 6.6 6.5 8.0 7.9 7.5
6.6 6.5 6.4 6.5 6.5 6.5 6.5 6.5 6.4 6.5 6.5 6.8 7.1 7.3 7.6 7.8 8.1 8.3 8.6 8.7 8.8 8.8 8.8 8.8 6.0 5.4 5.6 5.8 4.9 4.6 4.8 5.3 7.0 7.9 7.9 9.4 8.9 9.5 8.9 8.6 9.1 8.8 8.0 7.6 7.5 8.7 8.1 8.2 7.4
6.4 6.5 6.5 6.5 6.5 6.6 6.5 6.5 6.5 6.5 6.4 6.5 6.6 7.0 7.4 7.9 8.1 8.3 8.5 8.5 8.8 9.0 9.0 9.1 7.3 5.6 5.6 5.7 5.1 5.3 5.1 5.2 5.6 6.5 7.3 8.7 9.0 8.8 8.5 8.8 8.4 8.6 8.4 7.8 7.6 7.0 7.5 7.6 7.3
6.5 6.5 6.5 6.6 6.5 6.5 6.5 6.5 6.4 6.5 6.5 6.5 6.7 7.3 7.6 7.8 8.1 8.3 8.4 8.7 8.7 9.0 8.9 8.8 8.0 5.8 5.5 5.4 5.5 5.4 5.9 6.0 6.2 6.8 8.1 9.1 9.1 9.0 8.8 7.4 6.9 7.3 8.3 7.2 6.7 7.0 7.4 7.3 6.9
6.4 6.5 6.5 6.5 6.5 6.5 6.5 6.5 6.5 6.5 6.5 6.9 7.1 7.4 7.8 8.0 8.2 8.3 8.4 8.5 8.5 8.6 8.8 8.7 7.8 6.3 6.0 5.7 5.8 6.2 7.2 8.0 8.5 8.6 8.2 7.3 8.0 9.1 8.4 8.6 7.9 7.8 7.4 7.4 6.9 7.0 7.0 6.8 7.0
Wind_Speed
10 12 6 5 5 3 11 16 14 11 11 9 9 8 12 15 14 4 17 15 20 20 22 18 15 15 14 14 14 15 15 14 13 11 9 8 7 6 4 3 2 2 3 3 3 4 5 5 5
11 5 6 5 5 10 10 15 12 10 10 12 7 6 3 13 12 15 16 19 19 19 21 19 16 16 16 14 14 14 14 13 12 10 9 7 5 5 4 2 1 1 2 3 2 3 4 5 5
10 5 5 4 4 11 11 16 11 9 8 6 6 7 4 8 10 16 17 20 18 18 21 21 16 16 15 14 13 13 13 11 10 8 7 5 4 4 3 2 2 1 1 2 2 2 3 5 5
5 4 5 2 14 16 16 14 12 10 8 1 3 11 11 6 13 10 19 19 16 16 19 24 17 16 14 13 12 12 12 11 10 8 7 5 4 4 4 4 3 3 2 1 0 2 3 3 3
7 5 6 12 13 15 14 10 9 10 6 7 4 13 13 8 11 19 19 16 16 16 21 19 16 15 14 13 12 11 11 10 9 8 7 5 5 5 4 3 3 2 3 2 2 2 1 2 2
6 4 2 8 13 12 12 8 8 11 10 7 11 15 10 10 15 18 17 15 15 15 19 19 15 14 13 13 12 10 9 8 8 8 8 5 4 4 3 3 3 3 5 3 2 1 1 2 3
10 8 7 11 13 11 12 1 11 9 8 10 3 13 10 15 15 16 15 13 13 14 17 18 17 14 13 12 11 10 8 8 9 7 6 5 4 4 4 3 5 5 5 4 3 2 3 3 3
5 8 3 11 10 13 7 8 4 11 14 7 2 8 12 17 17 16 14 12 11 11 14 16 14 17 14 15 11 9 8 8 7 7 6 6 5 8 9 9 10 6 5 3 1 2 4 5 6
6 7 6 8 8 14 8 12 5 6 8 8 4 8 20 19 17 17 15 13 10 9 11 12 15 7 12 5 18 13 10 7 8 10 10 8 14 15 15 13 13 7 5 4 5 7 7 8 14
4 6 14 8 4 10 5 8 8 11 7 11 7 12 19 19 16 16 15 14 13 12 10 9 16 15 14 15 19 13 15 14 14 13 13 12 10 6 10 14 13 10 8 9 11 11 10 15 1
13 5 6 5 8 4 12 7 3 11 3 10 13 13 17 16 15 15 14 14 14 13 10 10 9 14 16 12 13 7 12 11 12 7 7 13 8 10 11 13 13 9 14 12 15 15 11 8 4
6 6 2 3 4 7 1 6 7 5 12 8 12 15 16 15 14 13 13 12 14 14 13 12 8 7 7 9 7 12 12 11 11 14 11 11 9 4 7 6 4 7 5 5 6 8 12 9 7
7 3 3 4 2 5 5 2 3 8 5 12 13 15 16 15 13 12 11 10 9 11 11 12 11 7 7 5 6 6 5 5 9 10 16 14 9 6 6 7 7 6 9 8 5 5 3 9 8
2 4 1 5 3 9 8 6 4 6 7 12 13 14 14 14 13 12 11 11 10 11 11 11 11 11 9 8 6 6 9 7 10 9 12 14 11 7 7 6 7 8 8 8 8 5 3 3 5
9 10 8 8 3 1 9 5 7 9 10 13 12 12 13 12 12 12 11 10 11 11 12 11 11 12 11 10 9 9 9 11 8 12 11 12 14 11 9 7 7 9 11 6 6 7 10 6 4
14 9 5 10 10 4 7 9 10 9 12 12 12 11 11 13 13 12 12 11 13 11 11 11 11 13 13 12 9 9 11 11 10 12 13 15 14 14 11 9 9 12 11 9 7 8 7 5 6
9 4 6 8 6 3 7 8 12 9 10 12 12 12 11 12 12 12 13 13 13 11 12 11 11 11 13 12 10 10 10 9 12 13 13 14 16 17 14 9 10 11 9 8 8 8 7 6 8
5 2 4 6 8 4 6 6 13 11 11 12 12 13 12 13 14 15 15 14 13 15 13 13 11 12 11 9 10 9 9 9 13 10 12 14 15 17 14 12 10 11 9 9 9 6 8 8 9
3 3 8 9 2 10 5 5 9 14 12 13 13 13 14 14 15 16 15 15 14 14 15 15 14 11 10 10 10 10 10 10 10 10 14 12 14 15 13 11 11 10 10 9 6 4 8 10 10
8 3 15 5 4 9 2 10 9 11 10 11 12 15 14 15 15 16 17 16 16 16 16 16 15 14 13 11 10 9 10 10 10 10 10 15 15 15 12 11 12 12 11 13 10 8 9 8 10
13 9 7 0 9 5 7 14 11 9 7 10 10 10 12 15 15 16 16 17 17 17 17 16 15 14 14 14 10 10 10 10 9 9 9 11 14 16 14 11 11 11 11 11 10 11 12 11 10
7 6 4 6 7 6 9 5 7 16 13 9 9 8 12 13 13 14 16 17 17 16 16 16 15 15 14 14 13 13 12 12 12 11 7 9 10 13 14 11 10 12 12 12 12 10 11 11 11
5 6 7 6 13 9 9 5 5 5 12 14 16 12 12 12 14 13 14 15 13 14 13 14 14 15 14 13 16 12 14 13 12 11 12 12 11 13 14 13 14 13 13 14 13 12 9 9 9
8 11 8 12 14 7 14 8 1 13 10 11 15 14 11 11 12 10 12 12 10 10 10 11 12 10 11 12 13 13 14 12 11 11 10 12 11 12 14 15 12 13 13 15 13 14 13 13 11
10 12 5 7 6 4 3 2 6 28 26 1 5 11 14 13 12 12 10 10 11 11 11 9 10 10 11 12 12 13 13 13 13 13 12 13 11 8 12 15 14 14 16 15 14 13 14 13 12
12 12 8 4 3 0 7 5 9 19 3 2 5 6 8 7 8 13 16 15 14 13 11 11 12 11 12 11 11 9 10 9 9 11 11 11 12 12 10 10 14 15 15 14 13 11 11 13 12
11 5 8 10 12 6 5 11 5 8 6 4 4 8 10 12 9 13 9 12 12 12 12 13 13 12 11 11 9 9 8 10 9 10 9 10 11 11 12 12 12 14 15 14 14 12 11 12 12
10 11 12 7 4 6 8 11 12 6 6 7 10 9 10 11 13 11 8 9 10 12 12 12 12 11 11 9 8 7 7 7 8 8 10 11 11 12 11 13 11 13 14 15 14 12 13 13 11
8 9 2 7 7 7 9 7 6 4 6 8 9 13 14 14 13 19 7 9 10 11 10 10 10 10 8 7 7 6 6 7 7 8 9 10 11 12 11 9 9 11 14 12 12 13 15 12 12
8 9 8 8 7 8 5 11 10 6 7 8 13 12 12 13 15 13 13 8 10 10 10 10 9 8 8 7 7 7 7 7 8 8 9 9 11 10 10 13 13 14 14 13 12 13 12 10 11
Wind_Direction
222 236 301 265 260 194 85 93 86 113 105 86 70 26 59 28 19 58 146 138 140 138 142 155 145 142 136 143 152 155 155 159 154 163 167 169 164 156 151 136 96 55 70 65 65 68 71 67 60
289 319 245 280 253 96 74 94 93 83 91 101 102 142 63 73 58 128 137 135 148 138 146 152 150 146 146 142 147 155 157 158 161 158 163 168 162 154 172 169 164 33 12 22 24 43 45 53 56
265 274 280 251 16 89 89 87 85 77 113 135 109 39 26 65 110 132 127 141 145 140 158 138 153 152 148 145 144 149 149 155 161 162 165 167 173 178 189 206 213 254 302 353 6 40 48 43 46
291 198 257 10 75 72 82 92 111 115 120 103 42 87 86 66 124 122 146 148 141 145 147 136 152 153 153 151 151 150 149 154 162 171 178 180 195 206 212 226 225 231 222 254 15 50 47 38 44
248 260 261 97 73 84 73 72 62 82 105 106 303 93 93 110 105 132 145 150 150 146 126 148 154 157 158 160 164 162 161 164 174 181 189 198 213 230 248 236 232 233 160 153 84 58 45 32 29
231 234 213 91 91 102 96 86 85 78 68 97 99 104 87 120 132 146 150 155 155 147 130 143 154 162 166 169 174 175 176 184 197 204 195 213 219 226 210 200 152 158 121 109 103 109 340 336 331
289 269 85 108 109 89 90 357 77 85 100 87 146 83 122 146 143 148 155 165 154 149 139 150 163 167 171 178 187 180 189 201 213 217 186 199 199 211 196 189 162 140 133 150 176 203 257 274 285
278 318 40 104 98 93 101 68 345 73 71 100 347 112 159 144 154 149 157 167 167 154 157 152 165 172 184 169 179 183 193 204 209 220 217 199 219 204 198 200 184 163 166 172 113 294 254 254 247
243 244 99 77 66 110 163 118 92 103 121 62 61 40 130 145 156 157 160 162 173 172 167 163 153 189 204 255 169 178 196 202 216 217 208 211 224 184 179 142 141 153 175 203 217 234 246 246 238
231 293 80 71 12 107 115 107 131 134 160 124 85 103 128 154 162 163 169 168 179 179 172 198 156 162 184 205 140 192 185 201 202 203 177 217 235 98 85 150 159 170 197 225 224 234 236 249 198
102 253 54 118 100 317 123 113 54 74 314 77 112 135 145 160 168 168 179 174 179 178 186 197 193 161 164 225 174 152 218 193 162 233 189 249 192 224 197 175 183 190 195 239 194 211 228 267 164
322 80 305 104 154 154 99 100 121 357 53 73 113 144 154 165 174 170 180 176 177 177 188 183 206 176 217 160 191 165 235 178 193 185 199 243 259 219 275 222 203 159 215 245 226 192 208 228 198
306 28 227 114 281 255 130 195 31 95 87 100 123 150 161 170 168 170 176 166 177 175 186 186 177 197 196 203 186 258 219 203 219 174 181 217 233 225 209 246 247 247 207 209 201 263 268 180 239
6 273 193 162 176 176 207 173 198 110 131 123 141 156 168 172 172 166 180 167 178 174 180 188 180 180 206 204 227 208 245 215 230 235 200 200 241 232 240 226 231 231 238 246 216 82 293 259 260
274 274 179 144 226 232 304 165 134 129 143 143 149 164 167 176 174 174 183 178 188 169 176 183 193 183 199 205 205 223 230 224 221 225 234 199 213 233 248 237 232 232 226 250 277 261 241 245 258
239 232 27 151 174 212 158 253 130 135 152 157 148 155 172 176 180 181 175 188 171 196 182 185 189 185 189 200 207 227 222 245 227 227 224 211 223 234 216 244 239 233 241 224 228 240 245 263 275
146 218 179 138 190 184 258 204 124 159 167 160 162 159 176 176 183 180 180 187 173 198 171 193 193 200 188 198 211 217 230 230 239 235 228 205 216 228 229 240 239 244 242 248 253 243 245 260 256
93 257 101 158 128 214 238 153 137 166 183 169 174 170 177 178 184 177 191 188 186 179 195 193 203 211 203 199 210 223 224 226 233 236 236 225 214 216 228 234 251 245 236 246 250 265 288 306 293
317 184 109 98 101 238 65 199 151 158 195 174 180 179 185 188 181 179 192 196 198 197 194 204 205 205 208 209 214 216 228 227 230 233 231 233 227 224 205 236 233 233 252 249 272 272 221 252 272
241 158 76 326 99 274 113 86 119 144 182 185 196 180 194 197 193 192 192 203 208 208 206 204 214 204 211 219 221 232 228 233 234 234 229 218 231 231 238 223 237 231 230 221 233 252 273 269 258
357 5 1 307 130 208 154 133 121 132 158 147 205 187 192 194 203 194 197 204 212 214 211 212 206 216 213 223 224 233 242 254 241 241 242 223 215 224 226 235 227 253 245 251 209 215 221 251 262
205 309 293 245 130 282 182 31 165 158 133 164 187 182 185 193 199 195 198 207 216 218 211 215 207 209 217 217 231 244 236 237 241 231 242 228 214 221 216 220 229 226 243 244 247 236 234 211 249
65 327 304 271 251 182 226 85 74 152 148 164 158 176 178 173 184 192 199 198 210 206 213 206 201 208 214 214 224 233 240 250 251 238 240 229 225 231 224 226 225 223 227 236 248 249 222 236 232
307 273 254 238 85 7 264 133 349 336 282 178 152 162 163 182 179 193 185 189 200 199 206 200 185 193 209 220 232 229 256 272 268 261 249 241 236 239 232 230 229 236 232 233 229 228 236 234 232
243 246 252 287 196 175 74 268 174 203 245 151 181 173 177 180 197 194 212 199 199 196 199 187 178 185 205 216 224 235 240 248 262 268 264 266 269 231 227 219 230 237 239 243 239 233 230 222 228
303 318 331 281 17 192 132 103 146 193 44 221 262 276 297 213 215 226 198 197 205 203 181 188 172 183 190 199 210 221 234 241 243 241 252 264 265 265 257 229 235 235 243 244 234 239 235 224 226
284 317 340 310 265 248 152 116 177 120 119 110 295 227 251 257 234 267 228 185 196 181 187 177 164 174 185 190 191 205 219 234 263 283 291 272 259 259 263 266 251 246 237 241 245 242 237 236 228
284 332 301 282 319 293 50 268 67 138 47 30 307 330 326 309 281 233 245 218 184 179 177 168 167 172 178 178 181 195 214 230 246 258 265 273 279 281 278 271 266 259 247 239 243 248 245 241 229
311 279 240 295 299 309 293 101 120 66 3 334 314 302 319 320 312 327 219 254 171 178 172 171 172 170 171 178 181 196 216 227 238 253 265 273 285 292 284 273 268 265 258 242 240 243 244 241 235
288 302 291 307 314 318 331 272 58 26 308 306 314 324 325 333 321 310 296 238 162 183 182 184 178 181 184 185 191 206 231 244 262 266 277 288 286 274 265 273 262 250 251 254 252 249 245 241 235